This is the latest recevied weather packets stored in our database for station/object N4AN. If no packets are shown the sender has not sent any weather packets the latest 10 day(s).
| Time | Temp. | Humidity | Pressure | Rain* | Wind** | Luminosity | Snow |
|---|---|---|---|---|---|---|---|
| 1787839754 | 30° C | 74% | 1011.6 hPa | 0 mm | - | - | - |
| 1787839453 | 30° C | 74% | 1011.7 hPa | 0 mm | - | - | - |
| 1787839153 | 30° C | 71% | 1011.5 hPa | 0 mm | - | - | - |
| 1787838853 | 30° C | 70% | 1011.5 hPa | 0 mm | - | - | - |
| 1787838553 | 30° C | 71% | 1011.3 hPa | 0 mm | - | - | - |
| 1787838252 | 30.56° C | 73% | 1011.4 hPa | 0 mm | - | - | - |
| 1787837952 | 31.67° C | 71% | 1011.5 hPa | 0 mm | - | - | - |
| 1787837652 | 32.22° C | 71% | 1011.4 hPa | 0 mm | - | - | - |
| 1787837512 | 32.22° C | 71% | 1011.5 hPa | 0 mm | - | - | - |
| 1787837351 | 32.22° C | 71% | 1011.5 hPa | 0 mm | - | - | - |
| 1787837050 | 32.22° C | 71% | 1011.6 hPa | 0 mm | - | - | - |
| 1787836750 | 32.22° C | 71% | 1011.4 hPa | 0 mm | - | - | - |
| 1787836449 | 32.22° C | 71% | 1011.4 hPa | 0 mm | - | - | - |
| 1787836149 | 31.67° C | 71% | 1011.3 hPa | 0 mm | - | - | - |
| 1787835850 | 31.67° C | 72% | 1011.3 hPa | 0 mm | - | - | - |
| 1787835547 | 31.67° C | 73% | 1011.3 hPa | 0 mm | - | - | - |
| 1787835245 | 31.11° C | 73% | 1011.2 hPa | 0 mm | - | - | - |
| 1787834946 | 31.11° C | 73% | 1011.2 hPa | 0 mm | - | - | - |
| 1787834642 | 31.11° C | 73% | 1011.2 hPa | 0 mm | - | - | - |
| 1787834453 | 31.11° C | 73% | 1011.1 hPa | 0 mm | - | - | - |
| 1787834338 | 31.11° C | 73% | 1011.1 hPa | 0 mm | - | - | - |
| 1787834038 | 31.67° C | 73% | 1011 hPa | 0 mm | - | - | - |
| 1787833737 | 31.67° C | 73% | 1010.8 hPa | 0 mm | - | - | - |
| 1787833437 | 31.67° C | 73% | 1010.9 hPa | 0 mm | - | - | - |
| 1787833140 | 31.67° C | 73% | 1010.9 hPa | 0 mm | - | - | - |
* Rain latest hour (hover to see other rain measurements)
** Current wind speed in m/s (hover to see current wind gust speed)